GW5702 Weather Reports


time (UTC)temp
C
wind
direction
speed
KPH
gust
KPH
rain 1hr
cm
rain 24hr
cm
rain mn
cm
humidity
%
barometer
mb
20260503230016 9 299 1.6 16.1 0.00 0.00 0.00 32 1022.3
20260503225017 9 328 3.2 16.1 0.00 0.00 0.00 31 1022.3
20260503224016 9 295 6.4 16.1 0.00 0.00 0.00 31 1022.3
20260503223017 10 180 0.0 14.5 0.00 0.00 0.00 29 1022.2
20260503222016 9 289 3.2 11.3 0.00 0.00 0.00 30 1022.2
20260503221018 10 306 4.8 11.3 0.00 0.00 0.00 29 1022.2
20260503220017 10 270 8.0 16.1 0.00 0.00 0.00 28 1022.1
20260503215017 11 265 0.0 11.3 0.00 0.00 0.00 27 1022.1
20260503214017 11 276 1.6 11.3 0.00 0.00 0.00 28 1022.1
20260503213017 10 307 3.2 11.3 0.00 0.00 0.00 29 1022.1
20260503212017 11 180 0.0 19.3 0.00 0.00 0.00 28 1022.2
20260503211017 11 297 3.2 12.9 0.00 0.00 0.00 28 1022.1
20260503210016 10 296 6.4 17.7 0.00 0.00 0.00 28 1022.1
20260503205017 10 293 6.4 20.9 0.00 0.00 0.00 28 1022.1
20260503204016 11 302 1.6 16.1 0.00 0.00 0.00 28 1022.2
20260503203019 10 273 3.2 14.5 0.00 0.00 0.00 28 1022.2
20260503202016 11 285 3.2 12.9 0.00 0.00 0.00 28 1022.3
20260503201021 10 272 1.6 20.9 0.00 0.00 0.00 27 1022.5
20260503200016 9 288 9.7 16.1 0.00 0.00 0.00 29 1022.8
20260503195017 10 287 4.8 22.5 0.00 0.00 0.00 30 1022.5
20260503194019 8 273 6.4 24.1 0.00 0.00 0.00 29 1022.8
20260503193019 10 272 4.8 16.1 0.00 0.00 0.00 32 1022.9
20260503192016 8 253 3.2 22.5 0.00 0.00 0.00 33 1023.0
20260503191017 8 258 6.4 17.7 0.00 0.00 0.00 33 1023.0
20260503190016 8 279 6.4 17.7 0.00 0.00 0.00 32 1023.0
20260503185017 10 306 3.2 14.5 0.00 0.00 0.00 31 1023.0
20260503184016 10 312 3.2 17.7 0.00 0.00 0.00 32 1023.1
20260503183016 9 268 4.8 24.1 0.00 0.00 0.00 32 1023.4
20260503182017 8 316 1.6 16.1 0.00 0.00 0.00 33 1023.4
20260503181022 7 275 4.8 16.1 0.00 0.00 0.00 34 1023.5
20260503180017 8 305 3.2 19.3 0.00 0.00 0.00 35 1023.3
20260503175017 7 259 4.8 17.7 0.00 0.00 0.00 35 1023.3
20260503174017 8 263 1.6 20.9 0.00 0.00 0.00 32 1023.4
20260503173016 8 353 3.2 11.3 0.00 0.00 0.00 34 1023.3
20260503172017 7 264 3.2 11.3 0.00 0.00 0.00 36 1023.5
20260503171017 7 300 3.2 20.9 0.00 0.00 0.00 36 1023.4
20260503131016 0 316 11.3 24.1 0.00 0.00 0.00 64 1022.5
20260503081016 -2 263 1.6 16.1 0.00 0.00 0.00 81 1019.8
20260503072018 -2 328 3.2 20.9 0.00 0.00 0.00 79 1019.4
20260503071017 -2 0.0 11.3 0.00 0.00 0.00 79 1019.4
20260503055016 -1 281 1.6 12.9 0.00 0.00 0.00 79 1019.9
20260503054017 -1 288 1.6 11.3 0.00 0.00 0.00 79 1019.9
20260503053016 -1 358 1.6 12.9 0.00 0.00 0.00 79 1019.9
20260503052017 0 289 3.2 14.5 0.00 0.00 0.00 80 1019.9
20260503051016 0 329 1.6 11.3 0.00 0.00 0.00 79 1019.9
20260503050016 0 308 0.0 8.0 0.00 0.00 0.00 80 1020.0
20260503045017 0 276 1.6 11.3 0.00 0.00 0.00 79 1020.0
20260503044019 0 247 3.2 4.8 0.00 0.00 0.00 80 1020.0
20260503043016 0 305 0.0 11.3 0.00 0.00 0.00 79 1020.1
20260503042017 0 288 4.8 12.9 0.00 0.00 0.00 78 1020.1
20260503041016 0 303 0.0 8.0 0.00 0.00 0.00 78 1020.1
20260503040017 0 287 3.2 16.1 0.00 0.00 0.00 78 1020.1
20260503035017 0 290 1.6 11.3 0.00 0.00 0.00 76 1020.2
20260503034016 0 303 3.2 16.1 0.00 0.00 0.00 75 1020.2
20260503033018 0 180 0.0 11.3 0.00 0.00 0.00 74 1020.2
20260503032018 0 297 6.4 12.9 0.00 0.00 0.00 73 1020.1
20260503031017 0 304 3.2 12.9 0.00 0.00 0.00 73 1020.2
20260503030016 0 268 1.6 14.5 0.00 0.00 0.00 72 1020.3
20260503025017 0 292 6.4 16.1 0.00 0.00 0.00 70 1020.4
20260503024016 0 180 0.0 19.3 0.00 0.00 0.00 70 1020.4
20260503023016 0 291 1.6 6.4 0.00 0.00 0.00 68 1020.5
20260503022017 0 293 3.2 6.4 0.00 0.00 0.00 68 1020.4
20260503021016 0 287 3.2 11.3 0.00 0.00 0.00 66 1020.3
20260503020017 1 180 0.0 14.5 0.00 0.00 0.00 66 1020.3
20260503015016 0 0.0 0.0 0.00 0.00 0.00 65 1020.3
20260503014017 0 180 0.0 12.9 0.00 0.00 0.00 64 1020.3
20260503013017 0 0.0 3.2 0.00 0.00 0.00 66 1020.2
20260503012017 1 275 0.0 9.7 0.00 0.00 0.00 66 1020.3
20260503011016 1 318 0.0 12.9 0.00 0.00 0.00 66 1020.3
20260503010016 1 289 3.2 14.5 0.00 0.00 0.00 64 1020.2
20260503005017 1 288 1.6 9.7 0.00 0.00 0.00 63 1020.1
20260503004016 1 279 3.2 14.5 0.00 0.00 0.00 61 1019.9
20260503003017 1 309 1.6 12.9 0.00 0.00 0.00 61 1019.7
20260503002017 1 313 4.8 11.3 0.00 0.00 0.00 60 1019.6
20260503001017 2 259 3.2 19.3 0.00 0.00 0.00 59 1019.6
20260503000017 2 306 1.6 20.9 0.00 0.00 0.00 59 1019.6
20260502235017 2 287 3.2 16.1 0.00 0.00 0.00 58 1019.6
20260502234017 2 299 0.0 16.1 0.00 0.00 0.00 56 1019.5
20260502233016 2 286 4.8 14.5 0.00 0.00 0.00 54 1019.4
20260502232019 2 292 3.2 11.3 0.00 0.00 0.00 54 1019.3
20260502231016 3 310 1.6 16.1 0.00 0.00 0.00 53 1019.3